﻿測定場所 (Monitoring sites),日付 (Measurement date),時間 (Measurement time),線量率 最大値 (max) μGy/h,線量率 最小値 (min) μGy/h,線量率 平均値 (average) μGy/h,
新宿 (Shinjuku),2011-07-03,23:00～23:59,0.0611,0.0556,0.0584,
新宿 (Shinjuku),2011-07-03,22:00～22:59,0.0610,0.0560,0.0583,
新宿 (Shinjuku),2011-07-03,21:00～21:59,0.0617,0.0562,0.0586,
新宿 (Shinjuku),2011-07-03,20:00～20:59,0.0613,0.0562,0.0586,
新宿 (Shinjuku),2011-07-03,19:00～19:59,0.0610,0.0562,0.0587,
新宿 (Shinjuku),2011-07-03,18:00～18:59,0.0610,0.0560,0.0588,
新宿 (Shinjuku),2011-07-03,17:00～17:59,0.0622,0.0553,0.0588,
新宿 (Shinjuku),2011-07-03,16:00～16:59,0.0612,0.0559,0.0588,
新宿 (Shinjuku),2011-07-03,15:00～15:59,0.0609,0.0559,0.0589,
新宿 (Shinjuku),2011-07-03,14:00～14:59,0.0627,0.0566,0.0590,
新宿 (Shinjuku),2011-07-03,13:00～13:59,0.0622,0.0569,0.0592,
新宿 (Shinjuku),2011-07-03,12:00～12:59,0.0628,0.0556,0.0587,
新宿 (Shinjuku),2011-07-03,11:00～11:59,0.0614,0.0562,0.0588,
新宿 (Shinjuku),2011-07-03,10:00～10:59,0.0610,0.0553,0.0585,
新宿 (Shinjuku),2011-07-03,09:00～09:59,0.0613,0.0560,0.0586,
新宿 (Shinjuku),2011-07-03,08:00～08:59,0.0611,0.0564,0.0586,
新宿 (Shinjuku),2011-07-03,07:00～07:59,0.0609,0.0555,0.0584,
新宿 (Shinjuku),2011-07-03,06:00～06:59,0.0609,0.0562,0.0587,
新宿 (Shinjuku),2011-07-03,05:00～05:59,0.0600,0.0554,0.0580,
新宿 (Shinjuku),2011-07-03,04:00～04:59,0.0608,0.0548,0.0582,
新宿 (Shinjuku),2011-07-03,03:00～03:59,0.0614,0.0562,0.0583,
新宿 (Shinjuku),2011-07-03,02:00～02:59,0.0607,0.0558,0.0582,
新宿 (Shinjuku),2011-07-03,01:00～01:59,0.0618,0.0558,0.0580,
新宿 (Shinjuku),2011-07-03,00:00～00:59,0.0610,0.0555,0.0576,
新宿 (Shinjuku),2011-07-02,23:00～23:59,0.0599,0.0549,0.0578,
新宿 (Shinjuku),2011-07-02,22:00～22:59,0.0601,0.0555,0.0575,
新宿 (Shinjuku),2011-07-02,21:00～21:59,0.0596,0.0544,0.0576,
新宿 (Shinjuku),2011-07-02,20:00～20:59,0.0609,0.0552,0.0578,
新宿 (Shinjuku),2011-07-02,19:00～19:59,0.0601,0.0558,0.0578,
新宿 (Shinjuku),2011-07-02,18:00～18:59,0.0600,0.0541,0.0577,
新宿 (Shinjuku),2011-07-02,17:00～17:59,0.0618,0.0545,0.0583,
新宿 (Shinjuku),2011-07-02,16:00～16:59,0.0603,0.0561,0.0582,
新宿 (Shinjuku),2011-07-02,15:00～15:59,0.0613,0.0560,0.0583,
新宿 (Shinjuku),2011-07-02,14:00～14:59,0.0604,0.0556,0.0583,
新宿 (Shinjuku),2011-07-02,13:00～13:59,0.0614,0.0560,0.0584,
新宿 (Shinjuku),2011-07-02,12:00～12:59,0.0614,0.0558,0.0585,
新宿 (Shinjuku),2011-07-02,11:00～11:59,0.0615,0.0561,0.0585,
新宿 (Shinjuku),2011-07-02,10:00～10:59,0.0614,0.0554,0.0586,
新宿 (Shinjuku),2011-07-02,09:00～09:59,0.0614,0.0556,0.0585,
新宿 (Shinjuku),2011-07-02,08:00～08:59,0.0610,0.0565,0.0582,
新宿 (Shinjuku),2011-07-02,07:00～07:59,0.0617,0.0558,0.0583,
新宿 (Shinjuku),2011-07-02,06:00～06:59,0.0605,0.0557,0.0582,
新宿 (Shinjuku),2011-07-02,05:00～05:59,0.0603,0.0555,0.0579,
新宿 (Shinjuku),2011-07-02,04:00～04:59,0.0608,0.0549,0.0582,
新宿 (Shinjuku),2011-07-02,03:00～03:59,0.0609,0.0554,0.0579,
新宿 (Shinjuku),2011-07-02,02:00～02:59,0.0608,0.0550,0.0583,
新宿 (Shinjuku),2011-07-02,01:00～01:59,0.0607,0.0548,0.0584,
新宿 (Shinjuku),2011-07-02,00:00～00:59,0.0615,0.0547,0.0583,
新宿 (Shinjuku),2011-07-01,23:00～23:59,0.0606,0.0562,0.0584,
新宿 (Shinjuku),2011-07-01,22:00～22:59,0.0608,0.0556,0.0580,
新宿 (Shinjuku),2011-07-01,21:00～21:59,0.0610,0.0551,0.0584,
新宿 (Shinjuku),2011-07-01,20:00～20:59,0.0609,0.0562,0.0584,
新宿 (Shinjuku),2011-07-01,19:00～19:59,0.0607,0.0550,0.0585,
新宿 (Shinjuku),2011-07-01,18:00～18:59,0.0619,0.0551,0.0586,
新宿 (Shinjuku),2011-07-01,17:00～17:59,0.0612,0.0556,0.0587,
新宿 (Shinjuku),2011-07-01,16:00～16:59,0.0608,0.0559,0.0589,
新宿 (Shinjuku),2011-07-01,15:00～15:59,0.0611,0.0564,0.0591,
新宿 (Shinjuku),2011-07-01,14:00～14:59,0.0613,0.0551,0.0586,
新宿 (Shinjuku),2011-07-01,13:00～13:59,0.0615,0.0562,0.0591,
新宿 (Shinjuku),2011-07-01,12:00～12:59,0.0621,0.0568,0.0588,
新宿 (Shinjuku),2011-07-01,11:00～11:59,0.0617,0.0568,0.0591,
新宿 (Shinjuku),2011-07-01,10:00～10:59,0.0624,0.0561,0.0594,
新宿 (Shinjuku),2011-07-01,09:00～09:59,0.0635,0.0575,0.0598,
新宿 (Shinjuku),2011-07-01,08:00～08:59,0.0626,0.0569,0.0598,
新宿 (Shinjuku),2011-07-01,07:00～07:59,0.0624,0.0569,0.0595,
新宿 (Shinjuku),2011-07-01,06:00～06:59,0.0626,0.0577,0.0596,
新宿 (Shinjuku),2011-07-01,05:00～05:59,0.0624,0.0569,0.0593,
新宿 (Shinjuku),2011-07-01,04:00～04:59,0.0618,0.0564,0.0592,
新宿 (Shinjuku),2011-07-01,03:00～03:59,0.0613,0.0566,0.0587,
新宿 (Shinjuku),2011-07-01,02:00～02:59,0.0616,0.0564,0.0585,
新宿 (Shinjuku),2011-07-01,01:00～01:59,0.0617,0.0562,0.0591,
新宿 (Shinjuku),2011-07-01,00:00～00:59,0.0623,0.0575,0.0594,
新宿 (Shinjuku),2011-06-30,23:00～23:59,0.0645,0.0586,0.0609,
新宿 (Shinjuku),2011-06-30,22:00～22:59,0.0644,0.0572,0.0607,
新宿 (Shinjuku),2011-06-30,21:00～21:59,0.0611,0.0552,0.0584,
新宿 (Shinjuku),2011-06-30,20:00～20:59,0.0609,0.0552,0.0581,
新宿 (Shinjuku),2011-06-30,19:00～19:59,0.0607,0.0550,0.0581,
新宿 (Shinjuku),2011-06-30,18:00～18:59,0.0609,0.0567,0.0587,
新宿 (Shinjuku),2011-06-30,17:00～17:59,0.0635,0.0583,0.0605,
新宿 (Shinjuku),2011-06-30,16:00～16:59,0.0653,0.0593,0.0621,
新宿 (Shinjuku),2011-06-30,15:00～15:59,0.0642,0.0583,0.0607,
新宿 (Shinjuku),2011-06-30,14:00～14:59,0.0628,0.0564,0.0589,
新宿 (Shinjuku),2011-06-30,13:00～13:59,0.0606,0.0555,0.0584,
新宿 (Shinjuku),2011-06-30,12:00～12:59,0.0614,0.0555,0.0584,
新宿 (Shinjuku),2011-06-30,11:00～11:59,0.0612,0.0564,0.0589,
新宿 (Shinjuku),2011-06-30,10:00～10:59,0.0622,0.0558,0.0588,
新宿 (Shinjuku),2011-06-30,09:00～09:59,0.0614,0.0552,0.0588,
新宿 (Shinjuku),2011-06-30,08:00～08:59,0.0628,0.0570,0.0594,
新宿 (Shinjuku),2011-06-30,07:00～07:59,0.0613,0.0556,0.0590,
新宿 (Shinjuku),2011-06-30,06:00～06:59,0.0616,0.0565,0.0590,
新宿 (Shinjuku),2011-06-30,05:00～05:59,0.0609,0.0558,0.0585,
新宿 (Shinjuku),2011-06-30,04:00～04:59,0.0609,0.0568,0.0591,
新宿 (Shinjuku),2011-06-30,03:00～03:59,0.0622,0.0568,0.0588,
新宿 (Shinjuku),2011-06-30,02:00～02:59,0.0609,0.0560,0.0586,
新宿 (Shinjuku),2011-06-30,01:00～01:59,0.0607,0.0544,0.0580,
新宿 (Shinjuku),2011-06-30,00:00～00:59,0.0614,0.0549,0.0585,
新宿 (Shinjuku),2011-06-29,23:00～23:59,0.0611,0.0557,0.0584,
新宿 (Shinjuku),2011-06-29,22:00～22:59,0.0614,0.0560,0.0585,
新宿 (Shinjuku),2011-06-29,21:00～21:59,0.0605,0.0558,0.0585,
新宿 (Shinjuku),2011-06-29,20:00～20:59,0.0613,0.0554,0.0582,
新宿 (Shinjuku),2011-06-29,19:00～19:59,0.0614,0.0555,0.0583,
新宿 (Shinjuku),2011-06-29,18:00～18:59,0.0604,0.0559,0.0581,
新宿 (Shinjuku),2011-06-29,17:00～17:59,0.0608,0.0565,0.0583,
新宿 (Shinjuku),2011-06-29,16:00～16:59,0.0607,0.0555,0.0583,
新宿 (Shinjuku),2011-06-29,15:00～15:59,0.0612,0.0554,0.0585,
新宿 (Shinjuku),2011-06-29,14:00～14:59,0.0612,0.0568,0.0587,
新宿 (Shinjuku),2011-06-29,13:00～13:59,0.0619,0.0567,0.0590,
新宿 (Shinjuku),2011-06-29,12:00～12:59,0.0610,0.0555,0.0587,
新宿 (Shinjuku),2011-06-29,11:00～11:59,0.0622,0.0563,0.0590,
新宿 (Shinjuku),2011-06-29,10:00～10:59,0.0623,0.0544,0.0588,
新宿 (Shinjuku),2011-06-29,09:00～09:59,0.0616,0.0565,0.0593,
新宿 (Shinjuku),2011-06-29,08:00～08:59,0.0621,0.0566,0.0595,
新宿 (Shinjuku),2011-06-29,07:00～07:59,0.0613,0.0570,0.0594,
新宿 (Shinjuku),2011-06-29,06:00～06:59,0.0619,0.0562,0.0594,
新宿 (Shinjuku),2011-06-29,05:00～05:59,0.0624,0.0569,0.0590,
新宿 (Shinjuku),2011-06-29,04:00～04:59,0.0620,0.0562,0.0585,
新宿 (Shinjuku),2011-06-29,03:00～03:59,0.0616,0.0562,0.0583,
新宿 (Shinjuku),2011-06-29,02:00～02:59,0.0609,0.0565,0.0588,
新宿 (Shinjuku),2011-06-29,01:00～01:59,0.0606,0.0558,0.0582,
新宿 (Shinjuku),2011-06-29,00:00～00:59,0.0607,0.0560,0.0583,
新宿 (Shinjuku),2011-06-28,23:00～23:59,0.0604,0.0560,0.0581,
新宿 (Shinjuku),2011-06-28,22:00～22:59,0.0608,0.0543,0.0580,
新宿 (Shinjuku),2011-06-28,21:00～21:59,0.0606,0.0551,0.0578,
新宿 (Shinjuku),2011-06-28,20:00～20:59,0.0601,0.0556,0.0577,
新宿 (Shinjuku),2011-06-28,19:00～19:59,0.0600,0.0549,0.0579,
新宿 (Shinjuku),2011-06-28,18:00～18:59,0.0614,0.0551,0.0582,
新宿 (Shinjuku),2011-06-28,17:00～17:59,0.0619,0.0551,0.0583,
新宿 (Shinjuku),2011-06-28,16:00～16:59,0.0610,0.0565,0.0586,
新宿 (Shinjuku),2011-06-28,15:00～15:59,0.0615,0.0560,0.0585,
新宿 (Shinjuku),2011-06-28,14:00～14:59,0.0607,0.0565,0.0586,
新宿 (Shinjuku),2011-06-28,13:00～13:59,0.0607,0.0557,0.0585,
新宿 (Shinjuku),2011-06-28,12:00～12:59,0.0622,0.0553,0.0592,
新宿 (Shinjuku),2011-06-28,11:00～11:59,0.0628,0.0565,0.0593,
新宿 (Shinjuku),2011-06-28,10:00～10:59,0.0617,0.0575,0.0592,
新宿 (Shinjuku),2011-06-28,09:00～09:59,0.0623,0.0567,0.0594,
新宿 (Shinjuku),2011-06-28,08:00～08:59,0.0610,0.0565,0.0589,
新宿 (Shinjuku),2011-06-28,07:00～07:59,0.0615,0.0560,0.0591,
新宿 (Shinjuku),2011-06-28,06:00～06:59,0.0623,0.0563,0.0593,
新宿 (Shinjuku),2011-06-28,05:00～05:59,0.0616,0.0561,0.0589,
新宿 (Shinjuku),2011-06-28,04:00～04:59,0.0607,0.0544,0.0587,
新宿 (Shinjuku),2011-06-28,03:00～03:59,0.0614,0.0562,0.0591,
新宿 (Shinjuku),2011-06-28,02:00～02:59,0.0607,0.0559,0.0587,
新宿 (Shinjuku),2011-06-28,01:00～01:59,0.0611,0.0550,0.0584,
新宿 (Shinjuku),2011-06-28,00:00～00:59,0.0617,0.0565,0.0585,
新宿 (Shinjuku),2011-06-27,23:00～23:59,0.0613,0.0561,0.0585,
新宿 (Shinjuku),2011-06-27,22:00～22:59,0.0612,0.0554,0.0585,
新宿 (Shinjuku),2011-06-27,21:00～21:59,0.0609,0.0560,0.0581,
新宿 (Shinjuku),2011-06-27,20:00～20:59,0.0613,0.0556,0.0583,
新宿 (Shinjuku),2011-06-27,19:00～19:59,0.0609,0.0559,0.0581,
新宿 (Shinjuku),2011-06-27,18:00～18:59,0.0606,0.0562,0.0581,
新宿 (Shinjuku),2011-06-27,17:00～17:59,0.0606,0.0555,0.0583,
新宿 (Shinjuku),2011-06-27,16:00～16:59,0.0614,0.0562,0.0586,
新宿 (Shinjuku),2011-06-27,15:00～15:59,0.0620,0.0564,0.0589,
新宿 (Shinjuku),2011-06-27,14:00～14:59,0.0617,0.0565,0.0588,
新宿 (Shinjuku),2011-06-27,13:00～13:59,0.0611,0.0558,0.0586,
新宿 (Shinjuku),2011-06-27,12:00～12:59,0.0607,0.0561,0.0587,
新宿 (Shinjuku),2011-06-27,11:00～11:59,0.0607,0.0558,0.0585,
新宿 (Shinjuku),2011-06-27,10:00～10:59,0.0619,0.0565,0.0588,
新宿 (Shinjuku),2011-06-27,09:00～09:59,0.0611,0.0556,0.0588,
新宿 (Shinjuku),2011-06-27,08:00～08:59,0.0613,0.0562,0.0584,
新宿 (Shinjuku),2011-06-27,07:00～07:59,0.0617,0.0552,0.0583,
新宿 (Shinjuku),2011-06-27,06:00～06:59,0.0611,0.0548,0.0583,
新宿 (Shinjuku),2011-06-27,05:00～05:59,0.0609,0.0552,0.0583,
新宿 (Shinjuku),2011-06-27,04:00～04:59,0.0614,0.0555,0.0586,
新宿 (Shinjuku),2011-06-27,03:00～03:59,0.0606,0.0551,0.0582,
新宿 (Shinjuku),2011-06-27,02:00～02:59,0.0614,0.0561,0.0584,
新宿 (Shinjuku),2011-06-27,01:00～01:59,0.0609,0.0558,0.0583,
新宿 (Shinjuku),2011-06-27,00:00～00:59,0.0614,0.0549,0.0582,
